Overview Statistics Trail Chart Weather Telemetry Raw packets
 

This is the latest recevied weather packets stored in our database for station/object SM4JDW-10. If no packets are shown the sender has not sent any weather packets the latest 10 day(s).

<< 1 2 3 4 5 6 7 >>
Time Temp. Humidity Pressure Rain* Wind** Luminosity Snow
1788500289 6.67° C 68% 998.7 hPa - - - -
1788498489 7.22° C 72% 998.7 hPa - - - -
1788496689 7.22° C 70% 998.8 hPa - - - -
1788494889 7.22° C 71% 998.8 hPa - - - -
1788493089 7.78° C 70% 998.9 hPa - - - -
1788491315 7.78° C 69% 999.1 hPa - - - -
1788489498 7.78° C 70% 999.3 hPa - - - -
1788487689 8.33° C 69% 999.3 hPa - - - -
1788485888 8.89° C 68% 999.5 hPa - - - -
1788484088 8.89° C 68% 999.6 hPa - - - -
1788482288 9.44° C 67% 1000 hPa - - - -
1788480488 10° C 67% 1000.1 hPa - - - -
1788478688 10° C 66% 1000.4 hPa - - - -
1788475088 10.56° C 63% 1000.5 hPa - - - -
1788473288 11.11° C 63% 1000.8 hPa - - - -
1788471488 11.11° C 62% 1000.9 hPa - - - -
1788469688 11.67° C 59% 1000.9 hPa - - - -
1788467888 12.22° C 60% 1000.8 hPa - - - -
1788466088 12.78° C 59% 1000.8 hPa - - - -
1788464288 13.33° C 57% 1001 hPa - - - -
1788462488 13.89° C 55% 1001 hPa - - - -
1788460688 14.44° C 54% 1001.2 hPa - - - -
1788458888 15° C 52% 1001.2 hPa - - - -
1788457087 16.11° C 50% 1001.3 hPa - - - -
1788455287 17.22° C 48% 1001.2 hPa - - - -

* Rain since midnight (hover to see other rain measurements)
** Current wind speed in m/s (hover to see current wind gust speed)